Weather History for KAEX - October, 2012

Change the Weather History Date:

Wednesday, October 24, 2012

  Actual Average Record
Temperature  
Mean Temperature 74 °F 65 °F  
Max Temperature 86 °F 77 °F 91 °F (1953)
Min Temperature 62 °F 52 °F 32 °F (1917)
Degree Days  
Heating Degree Days 0 3  
Month to date heating degree days 30 42  
Since 1 July heating degree days 30 45  
Cooling Degree Days 9 3  
Month to date cooling degree days 112 118  
Year to date cooling degree days 2792 2468  
Growing Degree Days 23 (Base 50)    
Moisture  
Dew Point 64 °F    
Average Humidity 76    
Maximum Humidity 100    
Minimum Humidity 51    
Precipitation  
Precipitation 0.00 in 0.13 in 2.75 in (1997)
Month to date precipitation 0.75 4.61  
Year to date precipitation 47.48 43.74  
Snow  
Snow 0.00 in - 0.00 in ()
Month to date snowfall 0.0  
Since 1 July snowfall 0.0  
Since 1 September snowfall 0.0  
Snow Depth 0.00 in    
Sea Level Pressure  
Sea Level Pressure 30.01 in    
Wind  
Wind Speed 5 mph (SE)    
Max Wind Speed 12 mph    
Max Gust Speed 23 mph    
Visibility 7 miles    
Events Fog    
T = Trace of Precipitation, MM = Missing Value Source: NWS Daily Summary

Daily Weather History Graph

Daily Weather History Graph

Search for Another Location

Airport or City:

Trip Planner

Search our weather history database for the weather conditions in past years. The results will help you decide how hot, cold, wet, or windy it might be!

Date:

Astronomy

Oct. 24, 2012 Rise Set
Actual Time 7:20 AM CDT 6:28 PM CDT
Civil Twilight 6:55 AM CDT 6:52 PM CDT
Nautical Twilight 6:26 AM CDT 7:21 PM CDT
Astronomical Twilight 5:58 AM CDT 7:49 PM CDT
Moon 3:28 PM CDT (10/24) 2:33 AM CDT (10/24)
Length of Visible Light 11h 57m
Length of Day
11h 08m
Waxing Gibbous, 76% of the Moon is Illuminated
Oct 24
Waxing Gibbous
Oct 29
Full
Nov 6
Last Quarter
Nov 13
New
Nov 20
First Quarter

Hourly Weather History & Observations

Time (CDT) Temp. Heat Index Dew Point Humidity Pressure Visibility Wind Dir Wind Speed Gust Speed Precip Events Conditions
12:53 AM 63.0 °F - 60.1 °F 90% 30.01 in 10.0 mi SE 5.8 mph - N/A   Clear
1:53 AM 64.0 °F - 61.0 °F 90% 30.02 in 10.0 mi SE 5.8 mph - N/A   Clear
2:53 AM 63.0 °F - 61.0 °F 93% 30.01 in 10.0 mi SE 4.6 mph - N/A   Clear
3:17 AM 64.4 °F - 62.6 °F 94% 30.00 in 10.0 mi SE 4.6 mph - N/A   Mostly Cloudy
3:39 AM 62.6 °F - 60.8 °F 94% 30.00 in 10.0 mi SE 3.5 mph - N/A   Scattered Clouds
3:53 AM 63.0 °F - 62.1 °F 97% 30.01 in 10.0 mi SE 3.5 mph - N/A   Clear
4:53 AM 62.1 °F - 61.0 °F 96% 30.02 in 7.0 mi ESE 4.6 mph - N/A   Clear
5:53 AM 63.0 °F - 62.1 °F 97% 30.04 in 5.0 mi Calm Calm - N/A   Clear
6:32 AM 62.6 °F - 62.6 °F 100% 30.03 in 3.0 mi Calm Calm - N/A   Scattered Clouds
6:36 AM 62.6 °F - 62.6 °F 100% 30.03 in 2.5 mi Calm Calm - N/A   Mostly Cloudy
6:53 AM 64.9 °F - 64.0 °F 97% 30.05 in 2.5 mi Calm Calm - N/A   Overcast
7:17 AM 66.2 °F - 64.4 °F 94% 30.05 in 0.8 mi ESE 5.8 mph - N/A   Overcast
7:22 AM 66.2 °F - 66.2 °F 100% 30.05 in 0.2 mi ESE 5.8 mph - N/A Fog Fog
7:53 AM 66.9 °F - 66.0 °F 97% 30.06 in 0.2 mi ESE 6.9 mph - N/A Fog Fog
8:35 AM 68.0 °F - 66.2 °F 94% 30.06 in 0.5 mi ESE 8.1 mph - N/A Fog Fog
8:53 AM 68.0 °F - 66.9 °F 96% 30.07 in 1.2 mi ESE 6.9 mph - N/A   Overcast
9:38 AM 68.0 °F - 66.2 °F 94% 30.06 in 3.0 mi SE 6.9 mph - N/A   Overcast
9:53 AM 69.1 °F - 68.0 °F 96% 30.07 in 4.0 mi SE 6.9 mph - N/A   Overcast
10:22 AM 71.6 °F - 68.0 °F 88% 30.06 in 7.0 mi SSE 6.9 mph - N/A   Mostly Cloudy
10:45 AM 75.2 °F - 68.0 °F 78% 30.06 in 10.0 mi SSE 9.2 mph - N/A   Scattered Clouds
11:53 AM 80.1 °F 82.3 °F 66.9 °F 64% 30.05 in 10.0 mi SE 6.9 mph - N/A   Partly Cloudy
12:53 PM 82.0 °F 83.8 °F 64.9 °F 56% 30.03 in 10.0 mi SE 6.9 mph - N/A   Partly Cloudy
1:53 PM 82.9 °F 84.4 °F 64.0 °F 53% 30.00 in 10.0 mi Variable 4.6 mph - 0.01 in   Mostly Cloudy
2:53 PM 84.0 °F 85.4 °F 64.0 °F 51% 29.98 in 10.0 mi Variable 3.5 mph - N/A   Mostly Cloudy
3:53 PM 84.9 °F 86.1 °F 64.0 °F 49% 29.96 in 10.0 mi South 5.8 mph - N/A   Scattered Clouds
4:53 PM 84.0 °F 85.8 °F 64.9 °F 53% 29.95 in 10.0 mi East 9.2 mph - N/A   Clear
5:53 PM 82.0 °F 83.4 °F 64.0 °F 54% 29.94 in 10.0 mi East 8.1 mph - N/A   Mostly Cloudy
6:53 PM 75.9 °F - 64.9 °F 69% 29.95 in 10.0 mi Calm Calm - N/A   Clear
7:53 PM 72.0 °F - 66.0 °F 81% 29.96 in 10.0 mi Calm Calm - N/A   Clear
8:53 PM 71.1 °F - 64.9 °F 81% 29.96 in 10.0 mi Calm Calm - N/A   Clear
9:53 PM 71.1 °F - 64.0 °F 78% 29.96 in 10.0 mi South 4.6 mph - N/A   Clear
11:53 PM 66.0 °F - 63.0 °F 90% 29.97 in 10.0 mi SE 5.8 mph - N/A   Clear